Date String (YYYY-MM-DD hh:mm:ss) UTC,Instrument flags,absolute air pressure of the measurement (hPa),sample flow rate (lpm),inlet stack bypass flow (lpm),air temperature of the measurement (°C),ambient temperature measured by the external sensor (°C),aerosol sample conditioner tube jacket temperature (°C),OPC LED temperature (°C),internal box temperature (°C),relative humidity of the measurement (%),span deviation,mass concentration of particles derived from Lorenz-Mie calculation of OPC scattering (μg/m³),mass concentration of particles derived from Lorenz-Mie calculation of OPC scattering (μg/m³),mass concentration of particles derived from Lorenz-Mie calculation of OPC scattering (μg/m³)
DateTimeUTC,F1_M11,P_M11,Q1_M11,Q2_M11,T1_M11,T2_M11,T3_M11,T4_M11,T5_M11,U1_M11,ZSPAN_M11,X2_M11,X0_M11,X1_M11
2024-05-17 18:00:00,SystemResetWarning,0822.1,5.00,000.00,023.5,022.2,000.0,031.8,025.0,015.2,0000.0,0007.37,0011.74,0007.00
2024-05-17 18:01:00,SystemResetWarning,0822.0,5.00,000.00,023.5,022.6,000.0,031.7,025.2,015.5,0000.0,0007.43,0010.95,0007.08
2024-05-17 18:02:00,SystemResetWarning,0822.0,5.00,000.00,023.6,022.9,000.0,031.7,025.4,014.8,0000.0,0007.48,0010.88,0007.14
2024-05-17 18:03:00,SystemResetWarning,0822.0,5.01,000.00,023.7,023.1,000.0,031.7,025.5,014.7,0000.0,0007.53,0010.90,0007.18
2024-05-17 18:04:00,SystemResetWarning,0821.9,4.99,000.00,023.8,023.3,000.0,031.8,025.6,015.2,0000.0,0007.60,0011.16,0007.25
2024-05-17 18:05:00,SystemResetWarning,0821.9,5.00,000.00,023.8,023.5,000.0,031.8,025.7,015.1,0000.0,0007.71,0011.58,0007.34
2024-05-17 18:06:00,SystemResetWarning,0821.9,4.99,000.00,023.9,023.0,000.0,031.9,025.4,014.9,0000.0,0007.85,0012.17,0007.43
2024-05-17 18:07:00,SystemResetWarning,0821.9,5.01,000.00,023.6,021.1,000.0,031.9,024.5,015.2,0000.0,0007.99,0012.08,0007.54
2024-05-17 18:08:00,SystemResetWarning,0821.9,5.02,000.00,023.3,021.0,000.0,031.9,024.4,015.1,0000.0,0008.11,0012.28,0007.63
2024-05-17 18:09:00,SystemResetWarning,0821.9,4.99,000.00,023.3,021.5,000.0,031.9,024.7,015.2,0000.0,0008.21,0012.38,0007.71
2024-05-17 18:10:00,SystemResetWarning,0821.9,4.99,000.00,023.4,021.9,000.0,031.8,024.9,014.5,0000.0,0008.27,0012.47,0007.77
2024-05-17 18:11:00,SystemResetWarning,0821.8,5.01,000.00,023.5,022.2,000.0,031.7,025.1,015.4,0000.0,0008.30,0012.63,0007.78
2024-05-17 18:12:00,SystemResetWarning,0821.9,5.00,000.00,023.5,022.6,000.0,031.7,025.2,015.2,0000.0,0008.28,0012.67,0007.76
2024-05-17 18:13:00,SystemResetWarning,0821.9,5.00,000.00,023.6,022.9,000.0,031.7,025.4,014.6,0000.0,0008.33,0012.83,0007.76
2024-05-17 18:14:00,SystemResetWarning,0821.9,4.99,000.00,023.7,023.1,000.0,031.7,025.5,014.5,0000.0,0008.31,0012.81,0007.75
2024-05-17 18:15:00,SystemResetWarning,0821.9,5.00,000.00,023.8,023.4,000.0,031.8,025.6,014.2,0000.0,0008.26,0012.62,0007.73
2024-05-17 18:16:00,SystemResetWarning,0821.9,5.00,000.00,023.8,023.5,000.0,031.8,025.7,014.1,0000.0,0008.21,0012.12,0007.69
2024-05-17 18:17:00,SystemResetWarning,0821.8,4.99,000.00,023.8,022.3,000.0,031.9,025.1,014.2,0000.0,0008.14,0012.38,0007.64
2024-05-17 18:18:00,SystemResetWarning,0821.8,5.01,000.00,023.4,020.9,000.0,031.9,024.3,014.1,0000.0,0007.99,0012.16,0007.51
2024-05-17 18:19:00,SystemResetWarning,0821.8,5.01,000.00,023.3,021.2,000.0,031.9,024.5,013.6,0000.0,0007.86,0011.95,0007.38
2024-05-17 18:20:00,SystemResetWarning,0821.8,4.99,000.00,023.3,021.6,000.0,031.8,024.7,013.7,0000.0,0007.74,0011.97,0007.25
2024-05-17 18:21:00,SystemResetWarning,0821.8,5.00,000.00,023.4,022.0,000.0,031.7,024.9,014.7,0000.0,0007.65,0011.89,0007.16
2024-05-17 18:22:00,SystemResetWarning,0821.8,4.99,000.00,023.5,022.4,000.0,031.7,025.1,015.1,0000.0,0007.67,0012.12,0007.17
2024-05-17 18:23:00,SystemResetWarning,0821.8,5.00,000.00,023.5,022.7,000.0,031.7,025.3,015.7,0000.0,0007.73,0012.31,0007.19
2024-05-17 18:24:00,SystemResetWarning,0821.9,5.00,000.00,023.6,023.0,000.0,031.7,025.5,015.5,0000.0,0007.69,0012.24,0007.18
2024-05-17 18:25:00,SystemResetWarning,0821.9,5.01,000.00,023.7,023.2,000.0,031.7,025.5,014.8,0000.0,0007.68,0012.30,0007.17
2024-05-17 18:26:00,SystemResetWarning,0821.8,5.00,000.00,023.8,023.4,000.0,031.8,025.6,015.6,0000.0,0007.69,0012.93,0007.16
2024-05-17 18:27:00,SystemResetWarning,0821.8,5.00,000.00,023.8,023.3,000.0,031.8,025.5,014.7,0000.0,0007.73,0012.85,0007.17
2024-05-17 18:28:00,SystemResetWarning,0821.7,4.98,000.00,023.7,021.7,000.0,031.9,024.7,014.9,0000.0,0007.75,0012.81,0007.21
2024-05-17 18:29:00,SystemResetWarning,0821.7,5.03,000.00,023.4,020.9,000.0,031.9,024.3,014.8,0000.0,0007.86,0012.99,0007.30
2024-05-17 18:30:00,SystemResetWarning,0821.6,4.99,000.00,023.3,021.4,000.0,031.9,024.6,015.0,0000.0,0007.95,0012.82,0007.38
2024-05-17 18:31:00,SystemResetWarning,0821.6,4.99,000.00,023.4,021.8,000.0,031.8,024.8,015.1,0000.0,0008.01,0012.64,0007.47
2024-05-17 18:32:00,SystemResetWarning,0821.7,5.01,000.00,023.4,022.2,000.0,031.7,025.0,015.6,0000.0,0008.08,0012.68,0007.54
2024-05-17 18:33:00,SystemResetWarning,0821.7,5.01,000.00,023.5,022.5,000.0,031.7,025.2,014.9,0000.0,0008.06,0012.31,0007.55
2024-05-17 18:34:00,SystemResetWarning,0821.8,4.99,000.00,023.6,022.8,000.0,031.7,025.3,014.8,0000.0,0008.00,0012.09,0007.55
2024-05-17 18:35:00,SystemResetWarning,0821.7,4.99,000.00,023.7,023.0,000.0,031.7,025.5,014.9,0000.0,0007.98,0012.10,0007.54
2024-05-17 18:36:00,SystemResetWarning,0821.7,5.00,000.00,023.7,023.3,000.0,031.7,025.6,015.1,0000.0,0008.03,0012.18,0007.57
2024-05-17 18:37:00,SystemResetWarning,0821.7,5.00,000.00,023.8,023.5,000.0,031.7,025.7,014.9,0000.0,0008.06,0011.56,0007.60
2024-05-17 18:38:00,SystemResetWarning,0821.6,4.99,000.00,023.9,023.0,000.0,031.8,025.4,016.0,0000.0,0008.06,0011.88,0007.62
2024-05-17 18:39:00,SystemResetWarning,0821.6,5.00,000.00,023.6,021.3,000.0,031.9,024.6,015.5,0000.0,0008.09,0011.80,0007.64
2024-05-17 18:40:00,SystemResetWarning,0821.6,5.02,000.00,023.4,021.2,000.0,031.9,024.5,015.4,0000.0,0008.16,0011.70,0007.67
2024-05-17 18:41:00,SystemResetWarning,0821.6,5.00,000.00,023.4,021.7,000.0,031.9,024.7,015.6,0000.0,0008.16,0011.64,0007.68
2024-05-17 18:42:00,SystemResetWarning,0821.6,4.99,000.00,023.4,022.0,000.0,031.8,024.9,015.8,0000.0,0008.19,0011.67,0007.70
2024-05-17 18:43:00,SystemResetWarning,0821.7,5.00,000.00,023.5,022.4,000.0,031.7,025.1,016.1,0000.0,0008.20,0011.61,0007.74
2024-05-17 18:44:00,SystemResetWarning,0821.7,5.00,000.00,023.6,022.7,000.0,031.7,025.3,016.2,0000.0,0008.20,0012.08,0007.74
2024-05-17 18:45:00,SystemResetWarning,0821.6,5.01,000.00,023.7,023.0,000.0,031.7,025.5,015.7,0000.0,0008.25,0012.55,0007.76
2024-05-17 18:46:00,SystemResetWarning,0821.6,5.01,000.00,023.7,023.2,000.0,031.7,025.5,015.1,0000.0,0008.30,0012.53,0007.78
2024-05-17 18:47:00,SystemResetWarning,0821.6,4.98,000.00,023.8,023.4,000.0,031.8,025.7,015.3,0000.0,0008.28,0012.43,0007.76
2024-05-17 18:48:00,SystemResetWarning,0821.8,4.99,000.00,023.9,023.5,000.0,031.8,025.8,015.5,0000.0,0008.26,0012.44,0007.74
2024-05-17 18:49:00,SystemResetWarning,0821.6,5.00,000.00,023.8,022.4,000.0,031.9,025.1,014.5,0000.0,0008.22,0012.28,0007.70
2024-05-17 18:50:00,SystemResetWarning,0821.5,5.01,000.00,023.5,021.1,000.0,032.0,024.4,014.7,0000.0,0008.13,0011.60,0007.60
2024-05-17 18:51:00,SystemResetWarning,0821.7,5.02,000.00,023.4,021.4,000.0,032.0,024.6,015.3,0000.0,0007.95,0011.19,0007.48
2024-05-17 18:52:00,SystemResetWarning,0821.7,4.99,000.00,023.4,021.8,000.0,031.9,024.8,015.7,0000.0,0007.86,0011.07,0007.41
2024-05-17 18:53:00,SystemResetWarning,0821.6,5.00,000.00,023.5,022.1,000.0,031.8,025.0,015.4,0000.0,0007.81,0011.00,0007.37
2024-05-17 18:54:00,SystemResetWarning,0821.6,5.01,000.00,023.5,022.5,000.0,031.8,025.2,015.9,0000.0,0007.79,0011.37,0007.33
2024-05-17 18:55:00,SystemResetWarning,0821.6,4.99,000.00,023.6,022.8,000.0,031.7,025.4,015.8,0000.0,0007.81,0011.21,0007.31
2024-05-17 18:56:00,SystemResetWarning,0821.6,5.00,000.00,023.7,023.0,000.0,031.7,025.5,015.6,0000.0,0007.78,0010.76,0007.27
2024-05-17 18:57:00,SystemResetWarning,0822.0,4.99,000.00,023.8,023.3,000.0,031.8,025.6,015.7,0000.0,0007.74,0011.12,0007.21
2024-05-17 18:58:00,SystemResetWarning,0822.0,5.00,000.00,023.9,023.5,000.0,031.8,025.7,015.6,0000.0,0007.75,0011.29,0007.24
2024-05-17 18:59:00,SystemResetWarning,0822.0,5.00,000.00,023.8,022.6,000.0,031.9,025.2,015.8,0000.0,0007.78,0011.28,0007.29
